Regional Weather Roundup
Issued by NWS

Home | Current Version | Previous Version | Text Only | Print | Product List | Glossary On
Versions: 1 2 3 4 5 6 7 8 9 10 11 12 13 14 15 16 17 18 19 20 21 22 23 24 25 26 27 28 29 30 31 32 33 34 35 36 37 38 39 40 41 42 43 44 45 46 47 48 49 50
000
ASUS43 KOAX 262010
RWRNE

WEATHER ROUNDUP FOR NEBRASKA
NATIONAL WEATHER SERVICE OMAHA NE
300 PM CDT TUE SEP 26 2017

NOTES: SATELLITE DATA IS BEING USED TO AUGMENT CLOUD COVER ABOVE
       12000 FEET.
       "FAIR" INDICATES FEW OR NO CLOUDS BELOW 12,000 FEET WITH NO
       SIGNIFICANT WEATHER AND/OR OBSTRUCTIONS TO VISIBILITY.


NEZ001>004-019>022-054>056-262100-
NEBRASKA PANHANDLE

CITY           SKY/WX    TMP DP  RH WIND       PRES   REMARKS
SCOTTSBLUFF    SUNNY     65  31  28 NW8       30.16F
ALLIANCE       SUNNY     64  30  27 W8        30.14F
CHADRON        MOSUNNY   66  22  18 NW8G18    30.14F
GORDON         FAIR      64  36  35 W8        30.13F
KIMBALL        SUNNY     62  36  36 W6        30.19S
SIDNEY         SUNNY     66  37  34 MISG      30.16F
$$

NEZ057>060-069>072-079>082-262100-
SOUTHWEST NEBRASKA

CITY           SKY/WX    TMP DP  RH WIND       PRES   REMARKS
NORTH PLATTE   SUNNY     68  45  43 NW3       30.14F
IMPERIAL       SUNNY     68  41  37 VRB5      30.15F
LEXINGTON      SUNNY     64  47  54 E3        30.15F
MCCOOK         SUNNY     65  48  54 E8        30.15F
OGALLALA       SUNNY     67  42  39 W5        30.14F
$$

NEZ005>010-023>029-035>040-094-262100-
NORTH CENTRAL NEBRASKA

CITY           SKY/WX    TMP DP  RH WIND       PRES   REMARKS
VALENTINE      MOSUNNY   66  43  43 SW7       30.11F
AINSWORTH      PTSUNNY   62  46  54 SW5       30.14F
BROKEN BOW     SUNNY     64  46  52 SW3       30.14F
O`NEILL        SUNNY     62  48  60 N6        30.14F
ORD            MOSUNNY   65  45  48 NE7       30.13F
THEDFORD       MOSUNNY   64  44  47 CALM      30.15S
$$

NEZ041-046>049-061>064-073>077-083>087-262100-
SOUTH CENTRAL NEBRASKA

CITY           SKY/WX    TMP DP  RH WIND       PRES   REMARKS
GRAND ISLAND   SUNNY     64  50  60 N9        30.15F
AURORA         SUNNY     62  48  61 CALM      30.15S
HASTINGS       MOSUNNY   61  48  62 NE8       30.15F
HEBRON         CLOUDY    60  51  71 N6        30.14F
HOLDREGE       PTSUNNY   59  47  64 CALM      30.16S
KEARNEY        SUNNY     61  48  62 N5        30.16F
YORK           MOSUNNY   61  50  67 NW6       30.15R
$$

NEZ011>018-030>034-042>045-262100-
NORTHEAST NEBRASKA

CITY           SKY/WX    TMP DP  RH WIND       PRES   REMARKS
NORFOLK        SUNNY     61  48  62 N9        30.11F
ALBION         MOSUNNY   62  49  63 N7        30.15S
BLAIR          CLOUDY    60  52  73 NW9       30.12R
COLUMBUS       SUNNY     63  50  62 VRB6      30.13F
FREMONT        MOSUNNY   63  51  64 N7        30.12F
TEKAMAH        PTSUNNY   63  50  62 N9        30.12F
WAYNE          MOSUNNY   62  47  60 NW7       30.13S
$$

NEZ050>053-065>068-078-088>093-262100-
SOUTHEAST NEBRASKA

CITY           SKY/WX    TMP DP  RH WIND       PRES   REMARKS
LINCOLN        MOSUNNY   65  51  60 N8        30.14S
OMAHA EPPLEY   CLOUDY    63  52  67 N8G17     30.12S
BEATRICE       MOSUNNY   65  53  64 N14       30.12S
FALLS CITY     CLOUDY    62  53  72 N10       30.11R
NEBRASKA CITY  CLOUDY    64  55  73 N7        30.11S
PLATTSMOUTH    MOSUNNY   63  53  71 NW10      30.11F
$$

NEZ044-045-051>053-067-262100-
OMAHA AREA

CITY           SKY/WX    TMP DP  RH WIND       PRES   REMARKS
OMAHA EPPLEY   CLOUDY    63  52  67 N8G17     30.12S
BLAIR          CLOUDY    60  52  73 NW9       30.12R
FREMONT        MOSUNNY   63  51  64 N7        30.12F
MILLARD        CLOUDY    63  53  69 NW10      30.13R
OFFUTT AFB     PTSUNNY   63  52  67 N8        30.11S
PLATTSMOUTH    MOSUNNY   63  53  71 NW10      30.11F
WAHOO          MOCLDY    64  50  61 N5        30.12F
$$




USA.gov is the U.S. government's official web portal to all federal, state and local government web resources and services.